Location: Arroyo Grande
(40.2671°N, 4.2512°W)
Time: 01:13:23
(UTC+00:00)

Cosmos 2278 Rocket - Pass Details

Date: 26 September 2023
Orbit: 842 x 844 km, 71.0° (Epoch: 03 December)

Event Time Altitude Azimuth Distance (km) Brightness Sun altitude
Rises 18:43:16 0° 352° (N) 3,411 5.5 -7.5°
Reaches altitude 10° 18:47:32 10° 23° (NNE) 2,471 4.5 -8.4°
Maximum altitude 18:49:42 12° 46° (NE) 2,319 4.1 -8.8°
Drops below altitude 10° 18:51:51 10° 68° (ENE) 2,466 4.1 -9.2°
Enters shadow 18:52:23 - 73° (ENE) 2,545 4.1 -9.3°
